CAPE
1844 1801 1204 877 623 470 177 334 559 598 454 552 375 321 228 53 0 0 1 26 30 1
1817 1581 1251 910 624 306 414 560 639 125 65 360 564 84 83 10 0 0 0 0 0 0
1841 1514 1140 864 632 584 630 491 200 136 163 307 185 0 0 0 0 0 0 0 0 0
1617 1385 1105 668 700 725 480 287 382 266 112 71 24 0 0 0 0 0 0 0 0 0
1685 1240 982 862 849 618 590 520 422 158 17 1 0 0 0 0 0 0 0 0 0 0
1506 1223 1133 998 782 660 579 418 216 39 5 0 0 0 0 0 0 0 0 0 0 0
1496 1192 1009 848 691 585 516 381 179 26 0 0 0 0 0 0 0 0 0 0 0 0
1252 1066 931 767 591 399 306 136 1 0 0 0 0 0 0 0 0 0 0 0 0 0
1121 961 765 653 467 324 168 6 0 0 0 0 0 0 0 0 0 0 0 0 0 0
1036 977 718 503 331 207 108 0 0 0 0 0 0 0 0 0 0 0 0 0 0 0
1065 899 533 341 220 101 13 0 0 0 0 0 0 0 0 0 0 0 0 0 0 0
848 534 419 288 134 3 0 0 0 0 0 0 0 0 0 0 0 0 0 0 0 0
442 422 320 151 10 0 0 0 0 0 0 0 0 0 0 0 0 0 0 0 0 0
281 244 108 26 0 0 0 0 0 0 0 0 0 0 0 0 0 0 0 0 0 0
CIN
-106 -91 -114 -127 -150 -144 -170 -129 -83 -63 -80 -60 -71 -60 -62 -129 0 0 -24 -151 -114 -11
-128 -111 -117 -151 -165 -183 -146 -92 -71 -187 -200 -77 -37 -116 -85 -189 0 0 0 0 0 0
-126 -138 -165 -168 -164 -130 -102 -111 -166 -183 -155 -90 -107 -74 0 0 0 0 0 0 0 0
-170 -155 -172 -201 -157 -118 -140 -163 -100 -121 -198 -215 -228 0 0 0 0 0 0 0 0 0
-157 -171 -175 -174 -151 -158 -129 -111 -102 -156 -245 -13 0 0 0 0 0 0 0 0 0 0
-172 -180 -164 -155 -171 -160 -137 -134 -159 -238 -215 0 0 0 0 0 0 0 0 0 0 0
-190 -204 -198 -189 -186 -178 -154 -141 -157 -219 0 0 0 0 0 0 0 0 0 0 0 0
-219 -214 -197 -179 -182 -196 -200 -244 -90 0 0 0 0 0 0 0 0 0 0 0 0 0
-221 -204 -188 -180 -214 -234 -301 -101 0 0 0 0 0 0 0 0 0 0 0 0 0 0
-206 -185 -213 -231 -253 -296 -322 0 0 0 0 0 0 0 0 0 0 0 0 0 0 0
-183 -183 -234 -261 -277 -332 -440 0 0 0 0 0 0 0 0 0 0 0 0 0 0 0
-187 -230 -217 -246 -292 -76 0 0 0 0 0 0 0 0 0 0 0 0 0 0 0 0
-185 -167 -195 -280 -383 0 0 0 0 0 0 0 0 0 0 0 0 0 0 0 0 0
-111 -136 -218 -271 0 0 0 0 0 0 0 0 0 0 0 0 0 0 0 0 0 0
Wind_Speed
7 7 6 8 10 11 13 14 16 17 18 18 19 19 19 19 19 19 20 20 19 20
7 6 7 9 10 11 12 14 15 16 17 18 17 18 18 18 19 20 20 20 21 21
7 6 7 9 10 11 12 13 15 16 17 18 18 18 18 18 18 19 19 20 20 20
7 6 8 9 10 11 12 13 13 15 17 18 17 17 18 18 17 19 19 19 20 20
7 8 9 10 11 11 12 12 13 14 16 17 17 17 17 17 18 18 19 19 20 19
7 8 9 11 11 12 11 11 13 14 16 18 18 19 18 18 17 18 19 19 19 19
9 10 11 12 12 12 11 11 12 14 15 17 17 19 19 17 17 19 18 18 18 18
11 10 9 9 9 10 11 11 12 13 15 17 18 19 19 17 17 18 17 17 17 17
8 8 7 8 8 8 9 10 11 13 14 17 19 19 17 16 16 17 17 17 17 17
7 7 8 7 6 6 7 8 10 12 14 16 17 17 18 17 16 17 19 19 18 18
8 7 8 7 5 4 5 7 8 10 13 14 17 18 18 17 17 19 21 21 20 19
7 6 6 4 1 2 5 6 8 9 11 13 15 16 18 17 17 18 20 22 24 25
7 5 5 4 2 3 5 7 10 10 11 12 13 16 17 18 19 20 22 24 26 26
6 6 8 8 7 7 6 7 9 9 10 12 13 13 14 15 17 19 23 25 25 23
Wind_Direction
133 122 89 60 48 46 40 43 36 28 25 27 29 29 26 21 16 11 4 358 358 354
127 108 81 54 53 48 45 43 47 35 30 29 35 31 31 25 19 11 4 1 360 358
126 87 64 50 43 53 53 53 52 41 36 33 32 31 30 26 24 17 13 10 7 8
115 82 63 73 75 72 70 69 57 44 32 33 32 31 28 25 24 18 16 11 8 8
105 89 84 94 91 82 75 70 58 44 36 30 26 23 21 19 19 19 14 7 3 7
113 106 103 101 98 88 72 59 47 36 27 20 15 12 12 13 16 13 7 6 5 6
134 126 118 108 97 89 75 61 47 37 29 23 17 11 8 12 9 3 8 11 8 8
135 125 111 101 88 78 70 58 46 35 25 17 12 8 5 6 5 2 5 9 10 9
140 127 117 111 99 84 68 54 43 32 25 18 7 8 9 5 2 359 359 359 0 0
151 148 143 126 105 84 59 42 38 30 22 15 17 17 8 3 359 355 351 349 351 349
167 163 152 141 118 74 39 39 39 26 24 18 7 9 12 15 7 356 351 354 351 347
202 187 176 176 193 41 33 29 16 19 14 11 9 13 13 15 11 1 355 354 353 351
242 211 222 243 278 345 11 10 7 13 16 16 13 2 5 7 7 2 357 352 352 354
249 259 282 290 304 321 341 357 6 11 10 8 9 11 8 5 2 359 353 352 354 358